Tracking 19854 objects as of 23-Sep-2019
HD Live streaming from Space Station
objects crossing your sky now

STARLINK OBJ AE

Track STARLINK OBJ AE now!
10-day predictions
STARLINK OBJ AE is classified as:


NORAD ID: 44263
Int'l Code: 2019-029AE
Perigee: 555.8 km
Apogee: 558.3 km
Inclination: 53.0 °
Period: 95.6 minutes
Semi major axis: 6928 km
RCS: Unknown
Launch date: May 24, 2019
Source: United States (US)
Launch site: AIR FORCE EASTERN TEST RANGE (AFETR)
aabbcc
Your satellite tracking list
Your tracking list is empty




NASA's NSSDC Master Catalog

Two Line Element Set (TLE):
1 44263U 19029AE  19265.70094208  .00000723  00000-0  68873-4 0  9991
2 44263  53.0038 346.3359 0001808 145.7754 214.3350 15.05517767 18464
Source of the keplerian elements: AFSPC